1508317200.0,15534,20.25,74372.8,14.03,-19.31,-20.19,0,*4D
1508317201.26,15535,20.25,74374.0,14.05,-18.59,-19.41,0,*42
1508317202.48,15536,20.25,74372.8,14.05,-17.93,-18.79,0,*42
1508317203.74,15537,20.19,74368.8,14.09,-19.61,-20.53,0,*4F
1508317204.94,15538,20.25,74374.5,14.09,-19.17,-19.99,0,*4D
1508317206.16,15539,20.25,74374.0,14.09,-17.69,-18.59,0,*46
1508317207.4,15540,20.25,74376.3,14.09,-17.79,-18.59,0,*49
1508317208.65,15541,20.25,74376.8,14.11,-17.41,-18.41,0,*43
1508317209.91,15542,20.25,74374.0,14.11,-17.79,-18.59,0,*42
1508317211.1,15543,20.25,74374.5,14.13,-17.73,-18.41,0,*42
1508317212.38,15544,20.25,74374.5,14.15,-17.59,-18.35,0,*48
1508317213.6,15545,20.19,74372.5,14.15,-18.07,-18.83,0,*40
1508317214.85,15546,20.19,74372.5,14.19,-18.73,-19.31,0,*44
1508317216.09,15547,20.25,74376.0,14.19,-20.09,-21.03,0,*49
1508317217.32,15548,20.25,74376.0,14.17,-18.31,-19.07,0,*47
1508317218.54,15549,20.19,74376.8,14.19,-17.87,-18.73,0,*48
1508317219.79,15550,20.25,74378.3,14.19,-18.17,-18.93,0,*48
1508317221.04,15551,20.25,74382.3,14.19,-17.97,-18.73,0,*40
1508317222.28,15552,20.19,74376.5,14.21,-19.17,-19.99,0,*4B
1508317223.51,15553,20.25,74376.5,14.21,-20.09,-20.93,0,*4F
1508317224.76,15554,20.19,74376.5,14.21,-19.71,-20.59,0,*4B
1508317225.99,15555,20.19,74378.8,14.19,-20.59,-21.47,0,*4F
1508317227.22,15556,20.19,74374.5,14.19,-19.71,-20.39,0,*44
1508317228.45,15557,20.19,74374.3,14.19,-19.51,-20.29,0,*46
1508317229.66,15558,20.19,74374.3,14.17,-19.75,-20.43,0,*4D
1508317230.89,15559,20.19,74378.8,14.17,-18.79,-19.41,0,*49
1508317232.12,15560,20.19,74378.8,14.17,-18.93,-19.75,0,*40
1508317233.34,15561,20.19,74376.0,14.19,-21.17,-22.27,0,*46
1508317234.59,15562,20.19,74376.0,14.17,-20.19,-20.99,0,*43
1508317235.8,15563,20.19,74372.5,14.17,-18.49,-19.37,0,*42
1508317237.0,15564,20.19,74372.0,14.17,-18.69,-19.47,0,*40
1508317238.26,15565,20.19,74374.3,14.17,-18.59,-19.41,0,*44
1508317239.54,15566,20.19,74376.0,14.21,-18.59,-19.31,0,*45
1508317240.79,15567,20.19,74378.3,14.21,-18.45,-19.23,0,*4A
1508317242.03,15568,20.19,74376.5,14.23,-18.99,-19.65,0,*44
1508317243.24,15569,20.19,74378.0,14.23,-19.13,-19.95,0,*49
1508317244.46,15570,20.19,74378.8,14.23,-19.95,-20.89,0,*48
1508317245.73,15571,20.19,74372.0,14.21,-19.61,-20.43,0,*46
1508317246.96,15572,20.19,74374.0,14.21,-21.39,-22.41,0,*43
1508317248.22,15573,20.19,74372.0,14.21,-20.89,-21.87,0,*41
1508317249.45,15574,20.19,74374.3,14.17,-20.63,-21.57,0,*4A
1508317250.65,15575,20.19,74372.8,14.17,-20.43,-21.43,0,*4C
1508317251.85,15576,20.19,74372.5,14.17,-19.75,-20.69,0,*49
1508317253.07,15577,20.19,74372.3,14.17,-20.35,-21.39,0,*42
1508317254.33,15578,20.19,74374.0,14.17,-19.41,-20.35,0,*49
1508317255.56,15579,20.19,74372.8,14.15,-19.71,-20.63,0,*4A
1508317256.78,15580,20.19,74372.5,14.15,-20.05,-21.13,0,*43
1508317258.01,15581,20.19,74372.8,14.13,-21.03,-22.07,0,*45
1508317259.24,15582,20.19,74374.5,14.15,-20.09,-20.89,0,*4F
1508317260.49,15583,20.19,74374.8,14.13,-20.19,-21.27,0,*4C
1508317261.71,15584,20.19,74370.0,14.13,-21.57,-22.57,0,*44
1508317262.94,15585,20.19,74374.3,14.13,-20.99,-22.07,0,*43
1508317264.16,15586,20.19,74372.8,14.13,-21.77,-22.73,0,*42
1508317265.4,15587,20.19,74368.3,14.09,-21.53,-22.57,0,*48
1508317266.63,15588,20.19,74374.3,14.09,-21.67,-22.63,0,*47
1508317267.86,15589,20.19,74368.5,14.05,-21.57,-22.53,0,*4A
1508317269.07,15590,20.19,74370.0,14.03,-21.43,-22.41,0,*42
1508317270.3,15591,20.19,74370.0,14.03,-21.47,-22.57,0,*40
1508317271.52,15592,20.19,74368.0,13.99,-21.09,-22.11,0,*4F
1508317272.76,15593,20.19,74366.8,14.01,-21.23,-22.27,0,*45
1508317274.01,15594,20.19,74368.5,14.01,-21.33,-22.31,0,*44
1508317275.27,15595,20.19,74370.5,13.99,-21.09,-21.87,0,*44
1508317276.52,15596,20.19,74372.3,13.99,-21.03,-22.03,0,*42
1508317277.78,15597,20.19,74372.0,13.99,-20.93,-21.83,0,*40
1508317279.03,15598,20.19,74370.3,13.99,-20.39,-21.33,0,*44
1508317280.29,15599,20.19,74368.3,13.99,-19.95,-20.83,0,*43
1508317281.53,15600,20.19,74372.5,13.99,-20.59,-21.47,0,*43
1508317282.78,15601,20.19,74370.3,13.97,-20.35,-21.23,0,*44
1508317284.02,15602,20.19,74370.0,13.99,-19.17,-19.99,0,*49
1508317285.28,15603,20.19,74372.5,14.01,-19.61,-20.53,0,*43
1508317286.49,15604,20.19,74372.0,14.01,-19.95,-20.73,0,*4D
1508317287.75,15605,20.19,74372.5,14.01,-21.03,-21.87,0,*42
1508317288.97,15606,20.19,74368.3,14.01,-20.83,-21.63,0,*42
1508317290.23,15607,20.19,74374.0,13.99,-20.29,-21.23,0,*41
1508317291.46,15608,20.19,74370.5,14.01,-19.23,-20.09,0,*41
1508317292.67,15609,20.19,74370.5,14.01,-19.47,-20.29,0,*40
1508317293.9,15610,20.19,74376.8,14.01,-19.51,-20.53,0,*42
1508317295.18,15611,20.19,74378.0,14.03,-20.35,-21.27,0,*4B
1508317296.4,15612,20.19,74374.0,14.03,-21.13,-22.07,0,*4C
1508317297.64,15613,20.19,74374.8,14.03,-20.79,-21.73,0,*40
1508317298.9,15614,20.19,74370.8,14.01,-21.23,-22.31,0,*4E
1508317300.19,15615,20.19,74368.0,13.99,-22.17,-23.23,0,*4F
1508317301.44,15616,20.19,74366.5,13.99,-21.33,-22.41,0,*4C
1508317302.69,15617,20.19,74364.3,13.97,-21.27,-22.31,0,*41
1508317303.95,15618,20.19,74364.8,13.97,-20.99,-21.67,0,*4A
1508317305.21,15619,20.19,74364.3,13.97,-20.49,-21.27,0,*42
1508317306.45,15620,20.19,74366.8,13.95,-21.93,-22.97,0,*44
1508317307.7,15621,20.19,74368.0,13.95,-21.43,-22.47,0,*45
1508317308.97,15622,20.19,74370.3,13.97,-21.53,-22.47,0,*45
1508317310.2,15623,20.19,74370.3,13.93,-22.37,-23.53,0,*45
1508317311.48,15624,20.19,74370.0,13.91,-21.03,-21.97,0,*4E
1508317312.71,15625,20.19,74370.3,13.93,-21.27,-22.37,0,*42
1508317313.97,15626,20.19,74370.5,13.91,-21.33,-22.27,0,*47
1508317315.22,15627,20.19,74364.3,13.91,-21.33,-22.27,0,*46
1508317316.48,15628,20.19,74364.3,13.89,-21.33,-22.47,0,*46
1508317317.71,15629,20.19,74364.8,13.87,-21.83,-22.93,0,*4B
1508317318.95,15630,20.19,74360.8,13.89,-21.77,-23.03,0,*4E
1508317320.16,15631,20.13,74360.3,13.87,-21.73,-22.93,0,*4D
1508317321.41,15632,20.19,74362.8,13.87,-22.31,-23.49,0,*4D
1508317322.67,15633,20.19,74366.5,13.85,-22.21,-23.13,0,*40
1508317323.95,15634,20.19,74364.5,13.81,-20.53,-21.53,0,*42
1508317325.2,15635,20.19,74364.3,13.81,-21.33,-22.67,0,*40
1508317326.45,15636,20.19,74360.8,13.81,-22.07,-23.03,0,*44
1508317327.7,15637,20.19,74362.8,13.81,-20.19,-21.13,0,*4B
1508317328.94,15638,20.13,74364.3,13.81,-19.91,-20.89,0,*4C
1508317330.16,15639,20.13,74366.3,13.87,-21.09,-22.31,0,*40
1508317331.44,15640,20.13,74368.5,13.81,-20.19,-20.99,0,*48
1508317332.67,15641,20.19,74368.8,13.85,-20.25,-21.09,0,*4A
1508317333.92,15642,20.19,74370.5,13.85,-21.27,-22.11,0,*40
1508317335.18,15643,20.19,74370.8,13.85,-22.37,-23.33,0,*42
1508317336.45,15644,20.19,74372.3,13.81,-22.31,-23.29,0,*4C
1508317337.71,15645,20.19,74370.0,13.79,-22.47,-23.53,0,*46
1508317338.98,15646,20.19,74370.5,13.77,-22.47,-23.43,0,*4A
1508317340.23,15647,20.13,74366.3,13.77,-21.97,-22.97,0,*4D
1508317341.47,15648,20.19,74364.5,13.75,-22.37,-23.33,0,*46
1508317342.7,15649,20.13,74360.3,13.75,-22.37,-23.33,0,*47
1508317343.94,15650,20.13,74360.3,13.73,-21.13,-22.07,0,*4A
1508317345.17,15651,20.13,74360.8,13.75,-21.23,-22.11,0,*49
1508317346.38,15652,20.13,74360.8,13.75,-20.63,-21.39,0,*46
1508317347.61,15653,20.19,74366.3,13.75,-20.73,-21.67,0,*4D
1508317348.84,15654,20.13,74362.5,13.75,-21.39,-22.21,0,*44
1508317350.1,15655,20.13,74364.0,13.73,-20.63,-21.57,0,*4F
1508317351.34,15656,20.13,74364.5,13.75,-20.89,-21.87,0,*43
1508317352.58,15657,20.13,74364.5,13.73,-20.63,-21.47,0,*4C
1508317353.79,15658,20.13,74366.5,13.75,-21.17,-22.11,0,*47
1508317355.06,15659,20.13,74368.5,13.77,-22.47,-23.43,0,*44
1508317356.29,15660,20.13,74368.5,13.75,-21.83,-22.63,0,*44
1508317357.53,15661,20.13,74366.3,13.73,-21.13,-22.07,0,*48
1508317358.79,15662,20.13,74370.0,13.71,-21.53,-22.31,0,*48
1508317360.0,15663,20.13,74370.8,13.71,-20.59,-21.39,0,*49
1508317361.23,15664,20.13,74370.0,13.73,-20.63,-21.47,0,*4C
1508317362.49,15665,20.13,74370.5,13.73,-20.39,-21.33,0,*41
1508317363.71,15666,20.13,74370.5,13.75,-20.59,-21.39,0,*48
1508317364.93,15667,20.13,74368.8,13.75,-20.79,-21.73,0,*45
1508317366.17,15668,20.13,74364.0,13.75,-21.57,-22.63,0,*45
1508317367.43,15669,20.13,74364.8,13.75,-21.03,-21.97,0,*4D
1508317368.68,15670,20.13,74366.5,13.73,-20.83,-21.73,0,*40
1508317369.91,15671,20.13,74370.0,13.73,-21.47,-22.41,0,*4A
1508317371.15,15672,20.13,74362.5,13.73,-21.63,-22.67,0,*4B
1508317372.44,15673,20.13,74368.5,13.73,-21.23,-22.17,0,*49
1508317373.68,15674,20.13,74366.5,13.73,-21.77,-22.83,0,*42
1508317374.97,15675,20.13,74364.8,13.73,-20.99,-21.87,0,*45
1508317376.19,15676,20.13,74366.0,13.75,-20.15,-21.09,0,*42
1508317377.48,15677,20.13,74368.3,13.73,-19.31,-20.15,0,*45
1508317378.72,15678,20.13,74366.5,13.75,-19.27,-19.99,0,*45
1508317379.94,15679,20.13,74366.8,13.75,-20.35,-21.09,0,*4F
1508317381.15,15680,20.13,74368.5,13.75,-20.29,-21.17,0,*4B
1508317382.38,15681,20.13,74368.5,13.75,-19.85,-20.63,0,*44
1508317383.59,15682,20.13,74368.5,13.79,-19.91,-20.59,0,*47
1508317384.84,15683,20.13,74370.8,13.79,-20.43,-21.23,0,*4F
1508317386.05,15684,20.13,74368.3,13.79,-19.91,-20.73,0,*49
1508317387.3,15685,20.13,74366.0,13.79,-21.03,-21.53,0,*4B
1508317388.53,15686,20.13,74368.8,13.77,-20.73,-21.39,0,*4C
1508317389.78,15687,20.13,74368.5,13.79,-20.19,-20.83,0,*4F
1508317390.99,15688,20.13,74370.0,13.79,-19.75,-20.43,0,*4C
1508317392.21,15689,20.13,74368.5,13.79,-19.51,-20.25,0,*4B
1508317393.48,15690,20.13,74374.0,13.81,-18.89,-19.65,0,*4E
1508317394.76,15691,20.13,74366.8,13.81,-18.59,-19.31,0,*43
1508317395.97,15692,20.13,74366.3,13.87,-18.79,-19.51,0,*42
1508317397.19,15693,20.13,74368.5,13.87,-18.21,-18.93,0,*41
1508317398.42,15694,20.13,74366.3,13.89,-17.63,-18.41,0,*4E
1508317399.64,15695,20.13,74368.5,13.93,-17.73,-18.55,0,*40
1508317400.9,15696,20.13,74370.8,13.93,-18.35,-19.27,0,*4A
1508317402.18,15697,20.13,74366.8,13.95,-19.81,-20.49,0,*41
1508317403.43,15698,20.13,74368.5,13.95,-20.19,-20.93,0,*42
1508317404.71,15699,20.13,74368.5,13.95,-19.41,-20.15,0,*4A
1508317405.95,15700,20.13,74370.5,13.95,-19.13,-19.99,0,*42
1508317407.18,15701,20.13,74370.3,13.99,-18.73,-19.47,0,*4B
1508317408.45,15702,20.13,74368.5,13.99,-18.55,-19.23,0,*4E
1508317409.69,15703,20.13,74368.0,14.01,-19.31,-19.99,0,*4B
1508317410.96,15704,20.13,74370.0,13.99,-18.89,-19.61,0,*4F
1508317412.19,15705,20.13,74368.8,14.01,-18.17,-18.93,0,*43
1508317413.41,15706,20.13,74368.0,14.03,-18.25,-18.99,0,*49
1508317414.61,15707,20.13,74368.5,14.05,-17.87,-18.79,0,*47
1508317415.8,15708,20.13,74370.5,14.05,-18.21,-18.99,0,*45
1508317417.0,15709,20.13,74370.0,14.09,-18.17,-19.03,0,*4F
1508317418.19,15710,20.13,74368.8,14.09,-18.25,-19.03,0,*46
1508317419.43,15711,20.13,74368.8,14.11,-18.25,-18.89,0,*4D
1508317420.66,15712,20.13,74370.3,14.11,-18.41,-19.17,0,*4A
1508317421.91,15713,20.13,74370.5,14.15,-18.35,-19.03,0,*49
1508317423.14,15714,20.13,74368.5,14.15,-18.07,-18.73,0,*49
1508317424.39,15715,20.13,74368.8,14.19,-18.01,-18.73,0,*42
1508317425.63,15716,20.13,74370.5,14.19,-18.11,-18.93,0,*4E
1508317426.85,15717,20.13,74368.8,14.19,-18.17,-19.03,0,*41
1508317428.08,15718,20.13,74370.8,14.19,-17.87,-18.65,0,*49
1508317429.31,15719,20.13,74370.3,14.23,-17.97,-18.69,0,*4C
1508317430.51,15720,20.13,74368.0,14.23,-17.83,-18.69,0,*43
1508317431.77,15721,20.13,74368.0,14.25,-18.01,-18.69,0,*41
1508317433.0,15722,20.13,74368.0,14.27,-18.45,-19.27,0,*4B
1508317434.23,15723,20.13,74368.0,14.31,-18.89,-19.71,0,*4E
1508317435.43,15724,20.13,74370.3,14.31,-17.69,-18.49,0,*42
1508317436.66,15725,20.13,74370.0,14.33,-18.73,-19.51,0,*4D
1508317437.91,15726,20.13,74370.0,14.33,-17.69,-18.55,0,*4F
1508317439.14,15727,20.13,74372.3,14.35,-17.45,-18.25,0,*41
1508317440.35,15728,20.13,74364.0,14.39,-17.35,-18.11,0,*42
1508317441.61,15729,20.13,74366.5,14.37,-17.11,-17.87,0,*4B
1508317442.89,15730,20.13,74370.5,14.41,-17.21,-18.01,0,*40
1508317444.11,15731,20.06,74364.5,14.43,-17.93,-18.83,0,*40
1508317445.32,15732,20.13,74368.3,14.43,-18.25,-19.17,0,*4D
1508317446.54,15733,20.13,74366.5,14.43,-17.79,-18.65,0,*4E
1508317447.77,15734,20.13,74368.0,14.45,-17.87,-18.65,0,*4E
1508317448.99,15735,20.13,74368.5,14.47,-17.59,-18.41,0,*48
1508317450.18,15736,20.13,74368.0,14.47,-18.17,-19.03,0,*49
1508317451.43,15737,20.13,74366.3,14.49,-18.11,-18.93,0,*48
1508317452.71,15738,20.13,74370.8,14.49,-18.31,-19.23,0,*4F
1508317453.98,15739,20.06,74364.3,14.49,-18.59,-19.41,0,*44
1508317455.22,15740,20.06,74364.8,14.53,-17.97,-18.99,0,*48
1508317456.47,15741,20.06,74368.8,14.53,-18.31,-19.23,0,*4A
1508317457.68,15742,20.06,74368.3,14.57,-18.21,-19.13,0,*4F
1508317458.9,15743,20.13,74374.5,14.57,-17.93,-18.79,0,*45
1508317460.13,15744,20.06,74368.0,14.57,-18.01,-18.83,0,*43
1508317461.33,15745,20.13,74370.8,14.57,-18.21,-19.17,0,*4C
1508317462.54,15746,20.06,74370.5,14.57,-18.25,-19.17,0,*4B
1508317463.79,15747,20.06,74368.5,14.59,-18.21,-19.23,0,*47
1508317465.05,15748,20.13,74372.0,14.59,-18.49,-19.41,0,*42
1508317466.31,15749,20.06,74374.0,14.59,-18.79,-19.65,0,*46
1508317467.55,15750,20.06,74370.8,14.61,-18.65,-19.57,0,*49
1508317468.75,15751,20.06,74370.5,14.61,-18.17,-19.13,0,*4D
1508317470.0,15752,20.06,74370.3,14.63,-18.59,-19.51,0,*40
1508317471.23,15753,20.13,74374.8,14.63,-17.69,-18.73,0,*4C
1508317472.45,15754,20.13,74372.5,14.63,-17.83,-18.99,0,*4B
1508317473.7,15755,20.06,74372.0,14.67,-17.79,-18.69,0,*44
1508317474.92,15756,20.06,74372.3,14.67,-18.11,-19.03,0,*4B
1508317476.12,15757,20.06,74374.5,14.69,-18.21,-19.07,0,*43
1508317477.35,15758,20.06,74372.5,14.69,-17.87,-18.89,0,*48
1508317478.6,15759,20.06,74372.0,14.71,-17.59,-18.65,0,*41
1508317479.83,15760,20.06,74372.5,14.75,-16.89,-17.87,0,*40
1508317481.08,15761,20.06,74372.8,14.77,-17.03,-17.93,0,*45
1508317482.33,15762,20.13,74374.5,14.77,-17.59,-18.55,0,*4C
1508317483.56,15763,20.06,74374.5,14.79,-18.07,-19.13,0,*44
1508317484.82,15764,20.13,74372.3,14.79,-17.17,-18.07,0,*49
1508317486.05,15765,20.06,74374.5,14.81,-16.89,-17.79,0,*4F
1508317487.27,15766,20.06,74374.8,14.83,-17.35,-18.25,0,*4E
1508317488.55,15767,20.06,74372.8,14.83,-17.11,-17.97,0,*4F
1508317489.78,15768,20.06,74372.8,14.87,-17.69,-18.65,0,*49
1508317491.01,15769,20.06,74378.0,14.87,-17.69,-18.65,0,*48
1508317492.24,15770,20.06,74372.3,14.89,-17.55,-18.49,0,*4F
1508317493.47,15771,20.06,74376.0,14.89,-17.25,-18.21,0,*47
1508317494.71,15772,20.06,74374.0,14.91,-17.73,-18.59,0,*41
1508317495.93,15773,20.06,74372.0,14.93,-17.69,-18.59,0,*49
1508317497.13,15774,20.06,74374.3,14.93,-17.83,-18.79,0,*48
1508317498.37,15775,20.06,74376.8,14.95,-17.49,-18.49,0,*4A
1508317499.6,15776,20.06,74372.8,14.99,-17.49,-18.49,0,*45
1508317500.84,15777,20.06,74372.8,14.99,-17.63,-18.65,0,*42
1508317502.12,15778,20.06,74374.5,14.99,-18.01,-18.93,0,*4F
1508317503.33,15779,20.06,74372.5,15.01,-18.65,-19.71,0,*41
1508317504.62,15780,20.13,74378.8,15.03,-18.31,-19.31,0,*40
1508317505.84,15781,20.06,74374.8,15.01,-18.07,-19.23,0,*45
1508317507.05,15782,20.06,74378.5,15.01,-17.83,-18.73,0,*41
1508317508.32,15783,20.06,74374.8,15.03,-17.45,-18.45,0,*4D
1508317509.56,15784,20.06,74372.3,15.05,-17.63,-18.59,0,*45
1508317510.78,15785,20.06,74372.3,15.05,-17.59,-18.65,0,*42
1508317512.03,15786,20.06,74372.3,15.07,-17.63,-18.83,0,*42
1508317513.28,15787,20.06,74374.0,15.07,-17.93,-19.13,0,*44
1508317514.5,15788,20.06,74378.0,15.09,-18.01,-18.99,0,*42
1508317515.73,15789,20.06,74378.8,15.09,-18.21,-19.27,0,*45
1508317517.01,15790,20.06,74376.5,15.11,-18.35,-19.31,0,*46
1508317518.27,15791,20.06,74376.0,15.11,-18.49,-19.57,0,*4C
1508317519.53,15792,20.06,74378.3,15.11,-18.49,-19.57,0,*4F
1508317520.78,15793,20.06,74376.3,15.09,-18.35,-19.27,0,*4B
1508317522.04,15794,20.06,74376.0,15.11,-18.35,-19.37,0,*44
1508317523.27,15795,20.06,74378.0,15.15,-18.25,-19.17,0,*42
1508317524.52,15796,20.06,74374.8,15.15,-18.73,-19.81,0,*4D
1508317525.74,15797,20.06,74376.5,15.13,-18.21,-19.23,0,*45
1508317527.0,15798,20.06,74376.0,15.17,-17.79,-18.73,0,*48
1508317528.26,15799,20.06,74376.5,15.17,-17.97,-19.13,0,*4E
1508317529.51,15800,20.06,74376.8,15.17,-18.83,-19.81,0,*40
1508317530.75,15801,20.06,74376.0,15.17,-19.37,-20.59,0,*40
1508317532.01,15802,20.06,74374.8,15.21,-19.91,-20.99,0,*46
1508317533.24,15803,20.06,74378.8,15.17,-19.47,-20.69,0,*46
1508317534.48,15804,20.06,74378.8,15.21,-19.07,-19.99,0,*45
1508317535.76,15805,20.06,74376.0,15.17,-18.55,-19.61,0,*40
1508317537.04,15806,20.06,74376.5,15.17,-18.55,-19.61,0,*43
1508317538.29,15807,20.06,74378.3,15.17,-18.55,-19.47,0,*46
1508317539.55,15808,20.06,74376.0,15.21,-18.83,-19.85,0,*49
1508317540.79,15809,20.06,74374.3,15.21,-19.13,-20.05,0,*42
1508317542.06,15810,20.06,74378.3,15.21,-18.65,-19.57,0,*47
1508317543.31,15811,20.06,74372.0,15.23,-18.35,-19.23,0,*42
1508317544.57,15812,20.06,74372.8,15.23,-18.01,-18.93,0,*4C
1508317545.83,15813,20.06,74372.5,15.23,-17.97,-18.93,0,*4D
1508317547.11,15814,20.06,74376.5,15.25,-18.35,-19.27,0,*45
1508317548.35,15815,20.06,74378.3,15.27,-18.31,-19.37,0,*43
1508317549.54,15816,20.06,74374.3,15.27,-18.11,-19.07,0,*41
1508317550.75,15817,20.06,74374.8,15.27,-18.25,-19.17,0,*46
1508317552.0,15818,20.06,74372.0,15.29,-18.49,-19.31,0,*49
1508317553.23,15819,20.06,74372.5,15.31,-18.45,-19.41,0,*4A
1508317554.43,15820,20.06,74374.0,15.31,-18.73,-19.71,0,*46
1508317555.72,15821,20.06,74372.8,15.29,-18.55,-19.57,0,*4E
1508317556.94,15822,20.06,74372.3,15.31,-18.45,-19.27,0,*42
1508317558.19,15823,20.06,74370.8,15.31,-18.89,-19.85,0,*4B
1508317559.4,15824,20.06,74370.8,15.31,-18.99,-20.05,0,*4F
1508317560.6,15825,20.06,74370.0,15.31,-18.45,-19.51,0,*44
1508317561.88,15826,20.06,74368.8,15.33,-17.97,-18.89,0,*41
1508317563.09,15827,20.06,74372.5,15.33,-18.17,-19.07,0,*40
1508317564.34,15828,20.06,74372.3,15.33,-17.87,-18.89,0,*4E
1508317565.59,15829,20.06,74372.3,15.33,-18.17,-19.23,0,*48
1508317566.84,15830,20.06,74370.8,15.33,-18.99,-19.85,0,*4A
1508317568.07,15831,20.06,74372.8,15.35,-18.25,-19.23,0,*46
1508317569.32,15832,20.06,74370.8,15.37,-17.49,-18.55,0,*42
1508317570.56,15833,20.06,74372.5,15.37,-17.79,-18.83,0,*4B
1508317571.75,15834,20.06,74368.8,15.39,-17.87,-18.83,0,*43
1508317572.95,15835,20.06,74370.3,15.43,-18.49,-19.51,0,*4C
1508317574.18,15836,20.06,74372.5,15.43,-18.01,-18.99,0,*46
1508317575.37,15837,20.06,74372.5,15.43,-18.17,-19.07,0,*46
1508317576.56,15838,20.06,74374.3,15.43,-18.07,-19.07,0,*48
1508317577.77,15839,20.06,74370.0,15.43,-17.73,-18.65,0,*40
1508317578.99,15840,20.06,74376.5,15.45,-18.17,-19.17,0,*41
1508317580.22,15841,20.06,74372.5,15.47,-17.79,-18.73,0,*46
1508317581.49,15842,20.06,74372.8,15.45,-18.59,-19.61,0,*48
1508317582.75,15843,20.06,74372.3,15.49,-18.35,-19.41,0,*4D
1508317584.01,15844,20.06,74370.8,15.49,-19.31,-20.49,0,*4D
1508317585.21,15845,20.06,74376.0,15.49,-20.09,-21.17,0,*47
1508317586.44,15846,20.06,74378.3,15.45,-19.99,-21.09,0,*44
1508317587.69,15847,20.06,74374.0,15.45,-19.85,-20.93,0,*4A
1508317588.96,15848,20.06,74374.3,15.45,-20.15,-21.33,0,*4D
1508317590.19,15849,20.06,74376.5,15.43,-20.59,-21.57,0,*40
1508317591.41,15850,20.06,74372.8,15.39,-19.75,-20.79,0,*4C
1508317592.66,15851,20.06,74378.3,15.43,-19.85,-20.79,0,*4F
1508317593.9,15852,20.06,74376.8,15.45,-19.81,-20.69,0,*4F
1508317595.12,15853,20.06,74376.8,15.43,-20.05,-20.99,0,*41
1508317596.35,15854,20.06,74378.3,15.39,-20.19,-21.17,0,*41
1508317597.57,15855,20.06,74376.8,15.39,-20.53,-21.47,0,*4B
1508317598.79,15856,20.06,74378.3,15.39,-19.75,-20.79,0,*4A
1508317600.0,15857,20.0,74376.0,15.39,-20.39,-21.47,0,*45
1508317601.25,15858,20.06,74376.8,15.37,-20.89,-21.97,0,*42
1508317602.5,15859,20.06,74378.0,15.37,-20.73,-21.83,0,*43
1508317603.78,15860,20.06,74372.8,15.33,-21.23,-22.17,0,*47
1508317605.0,15861,20.06,74376.3,15.35,-20.15,-21.09,0,*48
1508317606.26,15862,20.06,74374.8,15.37,-19.61,-20.69,0,*47
1508317607.49,15863,20.06,74376.8,15.37,-20.39,-21.47,0,*4C
1508317608.72,15864,20.06,74378.3,15.35,-21.67,-22.93,0,*49
1508317609.97,15865,20.0,74372.3,15.33,-22.07,-23.19,0,*48
1508317611.2,15866,20.06,74378.3,15.31,-21.83,-22.97,0,*41
1508317612.43,15867,20.0,74370.3,15.29,-22.67,-23.79,0,*41
1508317613.64,15868,20.06,74374.5,15.27,-21.93,-22.93,0,*4D
1508317614.89,15869,20.06,74366.8,15.27,-20.99,-21.97,0,*40
1508317616.09,15870,20.0,74366.0,15.27,-20.29,-21.39,0,*47
1508317617.35,15871,20.06,74368.3,15.27,-20.15,-21.23,0,*42
1508317618.58,15872,20.06,74366.3,15.27,-20.83,-21.93,0,*45
1508317619.79,15873,20.0,74366.8,15.27,-21.93,-22.87,0,*42
1508317621.0,15874,20.0,74368.5,15.27,-21.47,-22.57,0,*41
1508317622.23,15875,20.0,74368.0,15.23,-21.97,-23.09,0,*43
1508317623.49,15876,20.0,74370.3,15.25,-21.83,-22.97,0,*45
1508317624.72,15877,20.0,74370.5,15.23,-21.97,-22.97,0,*47
1508317625.95,15878,20.0,74374.8,15.21,-21.09,-22.11,0,*43
1508317627.21,15879,20.0,74380.8,15.21,-20.53,-21.63,0,*4A
1508317628.41,15880,20.0,74378.8,15.23,-22.83,-24.05,0,*44
1508317629.67,15881,20.0,74374.5,15.21,-24.97,-26.33,0,*43
1508317630.92,15882,20.0,74374.8,15.15,-23.85,-25.19,0,*48
1508317632.16,15883,20.0,74376.3,15.13,-22.31,-23.43,0,*48
1508317633.4,15884,20.0,74376.3,15.11,-22.03,-23.33,0,*4B
1508317634.63,15885,20.0,74370.5,15.09,-23.33,-24.61,0,*41
1508317635.88,15886,20.0,74372.3,15.07,-23.39,-24.67,0,*40
1508317637.08,15887,20.0,74368.0,15.05,-22.07,-23.09,0,*40
1508317638.31,15888,20.0,74368.5,15.03,-22.27,-23.39,0,*48
1508317639.57,15889,20.0,74370.3,15.03,-21.43,-22.47,0,*40
1508317640.84,15890,20.0,74370.5,15.03,-21.87,-22.97,0,*4D
1508317642.08,15891,20.0,74370.0,15.03,-21.73,-22.97,0,*47
1508317643.31,15892,20.0,74374.3,15.01,-23.53,-25.09,0,*46
1508317644.53,15893,20.0,74370.0,15.01,-24.31,-25.61,0,*4A
1508317645.79,15894,20.0,74366.5,14.95,-23.89,-25.03,0,*41
1508317647.02,15895,20.0,74360.3,14.93,-22.27,-23.53,0,*40
1508317648.22,15896,20.0,74362.3,14.93,-22.63,-23.79,0,*4B
1508317649.44,15897,20.0,74360.8,14.91,-22.41,-23.39,0,*4C
1508317650.67,15898,20.0,74364.5,14.91,-22.11,-23.13,0,*4E
1508317651.9,15899,20.0,74368.8,14.91,-22.41,-23.43,0,*4F
1508317653.16,15900,20.0,74372.3,14.91,-23.09,-24.21,0,*40
1508317654.42,15901,20.0,74374.0,14.89,-22.31,-23.49,0,*4B
1508317655.64,15902,20.0,74372.0,14.87,-22.87,-23.89,0,*47
1508317656.9,15903,20.0,74374.8,14.87,-21.57,-22.57,0,*4A
1508317658.15,15904,20.0,74372.3,14.87,-21.63,-22.73,0,*4C
1508317659.38,15905,20.0,74372.8,14.87,-20.39,-21.43,0,*43
1508317660.64,15906,20.0,74370.5,14.87,-20.69,-21.67,0,*43
1508317661.85,15907,20.0,74368.3,14.89,-21.73,-22.97,0,*4A
1508317663.07,15908,20.0,74370.0,14.89,-22.67,-23.69,0,*43
1508317664.3,15909,20.0,74370.8,14.87,-21.47,-22.41,0,*46
1508317665.51,15910,20.0,74370.0,14.89,-20.43,-21.43,0,*44
1508317666.71,15911,20.0,74372.5,14.89,-21.13,-22.07,0,*42
1508317667.91,15912,20.0,74374.5,14.89,-20.29,-21.39,0,*47
1508317669.17,15913,20.0,74378.0,14.89,-19.61,-20.79,0,*45
1508317670.4,15914,20.0,74374.8,14.91,-21.73,-23.09,0,*47
1508317671.66,15915,20.0,74376.5,14.91,-22.17,-23.13,0,*4C
1508317672.88,15916,20.0,74372.8,14.91,-21.39,-22.41,0,*46
1508317674.11,15917,20.0,74374.8,14.89,-23.29,-24.57,0,*4C
1508317675.34,15918,20.0,74376.8,14.89,-22.67,-23.85,0,*40
1508317676.6,15919,20.0,74372.8,14.87,-23.33,-24.51,0,*41
1508317677.82,15920,20.0,74376.0,14.85,-21.97,-23.09,0,*4F
1508317679.06,15921,20.0,74374.0,14.87,-20.69,-21.77,0,*47
1508317680.31,15922,20.0,74376.3,14.87,-21.13,-22.21,0,*48
1508317681.54,15923,20.0,74376.3,14.87,-20.73,-22.07,0,*4A
1508317682.82,15924,20.0,74376.8,14.87,-20.99,-22.21,0,*4D
1508317684.05,15925,20.0,74376.0,14.89,-20.49,-21.77,0,*4F
1508317685.26,15926,20.0,74382.8,14.89,-19.71,-21.09,0,*44
1508317686.5,15927,20.0,74382.5,14.89,-19.37,-20.53,0,*49
1508317687.75,15928,20.0,74382.0,14.91,-18.65,-19.85,0,*48
1508317688.95,15929,20.0,74382.5,14.93,-19.03,-20.29,0,*46
1508317690.21,15930,20.0,74382.3,14.95,-21.43,-22.73,0,*4A
1508317691.47,15931,20.0,74378.8,14.93,-21.53,-22.77,0,*48
1508317692.67,15932,20.0,74378.3,14.93,-20.93,-22.11,0,*46
1508317693.9,15933,20.0,74382.8,14.93,-20.79,-22.11,0,*43
1508317695.16,15934,20.0,74378.0,14.91,-22.93,-24.25,0,*41